Location: Newark
(45.2500°N, 7.5833°E)
Time: 13:03:15
(UTC+00:00)

NUDT-PHONESAT - Pass Details

Date: 28 February 2020
Orbit: 486 x 502 km, 97.4° (Epoch: 09 April)

Event Time Altitude Azimuth Distance (km) Brightness Sun altitude
Rises 05:03:52 0° 31° (NNE) 2,597 ? -12.6°
Reaches altitude 10° 05:06:42 10° 55° (NE) 1,711 ? -12.1°
Maximum altitude 05:08:54 15° 92° (E) 1,419 ? -11.7°
Drops below altitude 10° 05:11:05 10° 128° (SE) 1,706 ? -11.3°
Sets 05:13:53 0° 152° (SSE) 2,585 ? -10.8°
